User: anonymous   Login
Location: Caltech
(34.1382°N, 118.1253°W)
Time: 02:11:55
(UTC-07:00)
Language:

Oscar 11 - Orbit

View from above orbital plane
View from above orbital plane
View from above satellite
View from above satellite

Ground track
Ground track

The orbit data is extracted from the following two-line orbital elements,

1 14781U 84021B   17083.88838386 +.00000128 +00000-0 +22104-4 0  9991
2 14781 097.7087 132.6596 0009956 112.7560 247.4707 14.82871176756851
Epoch (UTC): 24 March 2017 21:19:16
Eccentricity: 0.0009956
inclination: 97.7087°
perigee height: 613 km
apogee height: 627 km
right ascension of ascending node: 132.6596°
argument of perigee: 112.7560°
revolutions per day: 14.82871176
mean anomaly at epoch: 247.4707°
orbit number at epoch: 75685

The dashed part of the orbit path shows where the satellite is in the earth's shadow,  

DLR